星链-34703 (STARLINK-34703)

导读

STARLINK-34703是美国于2025年8月30日发射的星链系列卫星,隶属于SpaceX公司打造的星链星座系统。该星座旨在为全球提供高速低延迟互联网覆盖,此卫星延续了星链卫星标准化设计,部署于近地轨道,助力拓展星座全球服务范围,提升网络容量与服务稳定性。

基本信息
目录编号:
65387
目录名称:
STARLINK-34703
国际标识:
2025-191J
轨道中心:
EARTH
卫星名称:
星链-34703
卫星全名:
星链-34703 (STARLINK-34703)
卫星状态:
在轨 (已飞行287 天)
发射日期:
2025-08-30 UTC
国别 :
美国 (US)
星等 :
--
轨道信息
数据来源 国际轨道数据 AOE轨道数据
星历时间 2026-06-13T13:01:58+0800
12小时前
查看轨道信息
2026-06-13T01:00:00+0800
1天前
查看轨道信息
半长轴 6927.63km 6927.656km
偏心率 0.0002758 0.0002578
轨道倾角 97.368° 97.372°
近地点辐角 82.167° 90.743°
升交点赤经 34.832° 34.352°
平近点角 277.987° 73.565°
近地点 547.582km 547.733km
远地点 551.404km 551.305km
周期 95.639分钟 95.640分钟
每日圈数 15.05656 15.056477
详细信息
固有亮度:
5
最大亮度:
2.5
卫星平台:
Starlink V1.0
覆盖范围:
全球
运营商:
太空探索技术公司
运营商所在国:
美国
制造商(研发单位):
太空探索技术公司
制造商所在国:
美国
使用方式:
暂无
卫星简介
Starlink 计划是 SpaceX 推出的全球卫星互联网项目,通过发射低轨道卫星,为全球尤其是偏远地区提供高速、低延迟的互联网服务。自 2019 年起,Starlink 已部署数千颗卫星,旨在缩小全球数字鸿沟,推动互联网普及。该项目还为军事、航空等行业提供通信支持,带来广泛经济效益。
2D轨道图
3D轨道图
轨道高度分析图
轨道倾角分析图
轨道综合分析图
查看轨道综合分析图